Santee, CA

3:21 PM PST on January 21, 2017 (GMT -0800)
Santee

Weather History for KSEE - October, 2013

Change the Weather History Date:

Tuesday, October 29, 2013

  Actual Average Record
Temperature  
Mean Temperature 65 °F -  
Max Temperature 66 °F 76 °F 95 °F (2008)
Min Temperature 64 °F 51 °F 42 °F (1982)
Growing Degree Days 15 (Base 50)    
Moisture  
Dew Point 44 °F    
Average Humidity 47    
Maximum Humidity 49    
Minimum Humidity 43    
Precipitation  
Precipitation 0.01 in - - ()
Sea Level Pressure  
Sea Level Pressure 29.99 in    
Wind  
Wind Speed 5 mph (West)    
Max Wind Speed 13 mph    
Max Gust Speed -    
Visibility 10 miles    
Events      
Averages and records for this station are not official NWS values.
T = Trace of Precipitation, MM = Missing Value Source: NWS Daily Summary

Daily Weather History Graph

Daily Weather History Graph

Search for Another Location

Airport or City:

Trip Planner

Search our weather history database for the weather conditions in past years. The results will help you decide how hot, cold, wet, or windy it might be!

Date:

Astronomy

Oct. 29, 2013 Rise Set
Actual Time 7:03 AM PDT 5:59 PM PDT
Civil Twilight 6:38 AM PDT 6:24 PM PDT
Nautical Twilight 6:08 AM PDT 6:53 PM PDT
Astronomical Twilight 5:40 AM PDT 7:22 PM PDT
Moon 2:13 AM PDT (10/29) 3:01 PM PDT (10/29)
Length of Visible Light 11h 46m
Length of Day
10h 55m
Waning Crescent, 24% of the Moon is Illuminated
Oct 29
Waning Crescent
Nov 3
New
Nov 9
First Quarter
Nov 17
Full
Nov 25
Last Quarter

Hourly Weather History & Observations

Time (PDT) Temp. Dew Point Humidity Pressure Visibility Wind Dir Wind Speed Gust Speed Precip Events Conditions
12:15 AM - - N/A% 29.96 in 10.0 mi SSE 5.8 mph - N/A   Partly Cloudy
12:35 AM - - N/A% 29.95 in 10.0 mi SE 6.9 mph - N/A   Clear
12:55 AM - - N/A% 29.95 in 10.0 mi SSE 5.8 mph - N/A   Clear
1:15 AM - - N/A% 29.95 in 10.0 mi South 4.6 mph - N/A   Scattered Clouds
1:35 AM - - N/A% 29.95 in 10.0 mi South 8.1 mph - N/A   Mostly Cloudy
1:55 AM - - N/A% 29.95 in 10.0 mi South 5.8 mph - N/A   Mostly Cloudy
2:15 AM - - N/A% 29.95 in 10.0 mi West 3.5 mph - N/A   Overcast
5:55 AM - - N/A% 29.95 in 10.0 mi Calm Calm - N/A   Overcast
6:47 AM - - N/A% 29.96 in 1.6 mi Calm Calm - N/A   Overcast
7:35 AM - - N/A% 29.97 in 10.0 mi Calm Calm - 0.01 in   Overcast
7:47 AM - - N/A% 29.98 in 6.0 mi Calm Calm - N/A   Mostly Cloudy
7:55 AM - - N/A% 29.98 in 10.0 mi East 3.5 mph - 0.01 in   Overcast
8:15 AM - - N/A% 29.99 in 10.0 mi Calm Calm - N/A   Overcast
8:35 AM - - N/A% 29.98 in 10.0 mi SSE 6.9 mph - N/A   Mostly Cloudy
8:55 AM - - N/A% 30.00 in 10.0 mi SE 4.6 mph - N/A   Partly Cloudy
9:15 AM - - N/A% 30.01 in 10.0 mi Calm Calm - N/A   Mostly Cloudy
9:35 AM - - N/A% 30.01 in 10.0 mi Calm Calm - N/A   Mostly Cloudy
9:55 AM - - N/A% 30.01 in 10.0 mi NE 3.5 mph - N/A   Partly Cloudy
10:15 AM - - N/A% 30.00 in 10.0 mi Calm Calm - N/A   Clear
10:35 AM - - N/A% 30.00 in 10.0 mi SE 3.5 mph - N/A   Clear
10:55 AM - - N/A% 30.00 in 10.0 mi Calm Calm - N/A   Partly Cloudy
11:15 AM - - N/A% 30.01 in 10.0 mi West 3.5 mph - N/A   Partly Cloudy
11:35 AM - - N/A% 30.00 in 10.0 mi SSW 3.5 mph - N/A   Clear
11:55 AM - - N/A% 30.00 in 10.0 mi West 8.1 mph - N/A   Scattered Clouds
12:15 PM - - N/A% 30.00 in 10.0 mi West 6.9 mph - N/A   Mostly Cloudy
12:35 PM - - N/A% 30.00 in 10.0 mi SW 5.8 mph - N/A   Partly Cloudy
12:55 PM - - N/A% 29.99 in 10.0 mi WNW 5.8 mph - N/A   Mostly Cloudy
1:15 PM - - N/A% 29.98 in 10.0 mi Calm Calm - N/A   Partly Cloudy
1:35 PM - - N/A% 29.97 in 10.0 mi NW 5.8 mph - N/A   Scattered Clouds
1:55 PM - - N/A% 29.97 in 10.0 mi West 10.4 mph - N/A   Partly Cloudy
2:15 PM - - N/A% 29.97 in 10.0 mi West 6.9 mph - N/A   Partly Cloudy
2:35 PM 64.4 °F 44.6 °F 49% 29.97 in 10.0 mi WNW 10.4 mph - N/A   Partly Cloudy
2:47 PM 64.4 °F 44.6 °F 49% 29.96 in 20.0 mi West 11.5 mph - N/A   Mostly Cloudy
2:55 PM 64.4 °F 44.6 °F 49% 29.96 in 10.0 mi WNW 11.5 mph - N/A   Clear
3:15 PM 66.2 °F 44.6 °F 46% 29.96 in 10.0 mi West 10.4 mph - N/A   Partly Cloudy
3:35 PM 66.2 °F 42.8 °F 43% 29.97 in 10.0 mi WNW 10.4 mph - N/A   Clear
3:55 PM - - N/A% 29.96 in 10.0 mi West 12.7 mph - N/A   Clear
4:15 PM 64.4 °F 42.8 °F 45% 29.97 in 10.0 mi West 11.5 mph - N/A   Clear
4:35 PM 64.4 °F 42.8 °F 45% 29.97 in 10.0 mi West 9.2 mph - N/A   Clear
4:55 PM - - N/A% 29.97 in 10.0 mi WNW 9.2 mph - N/A   Clear
5:15 PM - - N/A% 29.97 in 10.0 mi West 8.1 mph - N/A   Clear
5:35 PM - - N/A% 29.97 in 10.0 mi West 6.9 mph - N/A   Clear
5:50 PM - - N/A% 29.98 in 12.0 mi West 11.5 mph - N/A   Partly Cloudy
5:55 PM - - N/A% 29.98 in 10.0 mi WNW 6.9 mph - N/A   Clear
6:15 PM - - N/A% 29.98 in 10.0 mi WNW 6.9 mph - N/A   Clear
6:35 PM - - N/A% 29.98 in 10.0 mi West 3.5 mph - N/A   Clear
6:55 PM - - N/A% 29.99 in 10.0 mi West 3.5 mph - N/A   Clear
7:15 PM - - N/A% 30.00 in 10.0 mi WNW 3.5 mph - N/A   Clear
7:35 PM - - N/A% 30.00 in 10.0 mi Calm Calm - N/A   Clear
7:55 PM - - N/A% 30.00 in 10.0 mi Calm Calm - N/A   Clear
8:15 PM - - N/A% 30.01 in 10.0 mi Calm Calm - N/A   Clear
8:35 PM - - N/A% 30.02 in 10.0 mi Calm Calm - N/A   Scattered Clouds
8:55 PM - - N/A% 30.02 in 10.0 mi Calm Calm - N/A   Mostly Cloudy
9:15 PM - - N/A% 30.02 in 10.0 mi Calm Calm - N/A   Mostly Cloudy
9:35 PM - - N/A% 30.02 in 10.0 mi Calm Calm - N/A   Scattered Clouds
9:55 PM - - N/A% 30.03 in 10.0 mi Calm Calm - N/A   Partly Cloudy
10:15 PM - - N/A% 30.03 in 10.0 mi WNW 3.5 mph - N/A   Clear
10:35 PM - - N/A% 30.03 in 10.0 mi WNW 3.5 mph - N/A   Partly Cloudy
10:55 PM - - N/A% 30.03 in 10.0 mi West 3.5 mph - N/A   Partly Cloudy
11:15 PM - - N/A% 30.03 in 10.0 mi Calm Calm - N/A   Partly Cloudy
11:35 PM - - N/A% 30.03 in 10.0 mi Calm Calm - N/A   Scattered Clouds
11:55 PM - - N/A% 30.03 in 10.0 mi Calm Calm - N/A   Mostly Cloudy